GW3631 Weather Reports


time (UTC)temp
C
wind
direction
speed
KPH
gust
KPH
rain 1hr
cm
rain 24hr
cm
rain mn
cm
humidity
%
barometer
mb
20260901094600 13 0 0.0 0.0 0.00 0.00 0.00 93 1013.2
20260901093104 14 0 0.0 0.0 0.00 0.00 0.00 93 1013.0
20260901091601 14 0 0.0 0.0 0.00 0.00 0.00 92 1013.0
20260901090105 14 0 0.0 0.0 0.00 0.00 0.00 92 1013.1
20260901084605 14 0 0.0 0.0 0.00 0.00 0.00 91 1013.0
20260901083103 15 0 0.0 0.0 0.00 0.00 0.00 91 1012.9
20260901081559 15 0 0.0 0.0 0.00 0.00 0.00 92 1012.9
20260901080107 15 0 0.0 0.0 0.00 0.00 0.00 91 1012.8
20260901074603 15 0 0.0 0.0 0.00 0.00 0.00 89 1012.9
20260901073104 16 0 0.0 0.0 0.00 0.00 0.00 88 1013.1
20260901071604 16 0 0.0 0.0 0.00 0.00 0.00 87 1013.2
20260901070112 16 0 0.0 0.0 0.00 0.00 0.00 88 1013.2
20260901064604 16 0 0.0 1.6 0.00 0.00 0.00 86 1013.3
20260901063101 17 0 0.0 0.0 0.00 0.00 0.00 85 1013.4
20260901061602 17 0 0.0 0.0 0.00 0.00 0.00 85 1013.3
20260901060105 17 0 0.0 0.0 0.00 0.00 0.00 85 1013.3
20260901054601 16 0 0.0 0.0 0.00 0.00 0.00 86 1013.3
20260901053110 17 0 0.0 1.6 0.00 0.00 0.00 85 1013.3
20260901051604 17 0 0.0 0.0 0.00 0.00 0.00 84 1013.2
20260901050104 17 0 0.0 0.0 0.00 0.00 0.00 84 1013.2
20260901044602 17 0 0.0 0.0 0.00 0.00 0.00 84 1013.3
20260901043107 17 0 0.0 0.0 0.00 0.00 0.00 83 1013.3
20260901041606 18 0 0.0 0.0 0.00 0.00 0.00 81 1013.1
20260901040106 18 0 0.0 0.0 0.00 0.00 0.00 79 1013.1
20260901034601 18 0 0.0 0.0 0.00 0.00 0.00 79 1013.0
20260901033120 18 0 0.0 0.0 0.00 0.00 0.00 80 1012.9
20260901031610 18 0 0.0 0.0 0.00 0.00 0.00 80 1013.0
20260901030108 18 0 0.0 0.0 0.00 0.00 0.00 79 1012.8
20260901024559 19 0 0.0 0.0 0.00 0.00 0.00 78 1012.6
20260901023107 20 0 0.0 0.0 0.00 0.00 0.00 79 1012.6
20260901021606 20 0 0.0 0.0 0.00 0.00 0.00 78 1012.5
20260901014603 21 0 0.0 0.0 0.00 0.00 0.00 75 1012.2
20260901013113 21 0 0.0 0.0 0.00 0.00 0.00 74 1012.0
20260901011621 23 0 0.0 0.0 0.00 0.00 0.00 73 1012.0
20260901010114 23 0 0.0 0.0 0.00 0.00 0.00 70 1012.0
20260901004604 25 0 0.0 0.0 0.00 0.00 0.00 67 1011.9
20260901003110 26 0 0.0 0.0 0.00 0.00 0.00 63 1011.9
20260901001604 26 0 0.0 0.0 0.00 0.00 0.00 58 1011.9
20260901000104 27 0 0.0 4.8 0.00 0.00 0.00 54 1011.9
20260831234604 28 253 1.6 3.2 0.00 0.00 0.00 52 1011.8
20260831233106 28 310 1.6 6.4 0.00 0.00 0.00 48 1011.9
20260831231611 28 261 1.6 4.8 0.00 0.00 0.00 48 1011.9
20260831230120 28 307 4.8 8.0 0.00 0.00 0.00 47 1011.9
20260831224608 28 277 6.4 14.5 0.00 0.00 0.00 48 1012.0
20260831223111 28 273 4.8 9.7 0.00 0.00 0.00 46 1011.7
20260831221608 28 299 4.8 9.7 0.00 0.00 0.00 50 1011.8
20260831220112 28 287 1.6 4.8 0.00 0.00 0.00 48 1011.8
20260831214613 28 298 3.2 4.8 0.00 0.00 0.00 45 1011.6
20260831213112 29 291 1.6 4.8 0.00 0.00 0.00 47 1011.7
20260831211605 28 0 1.6 4.8 0.00 0.00 0.00 46 1011.8
20260831204605 29 301 1.6 4.8 0.00 0.00 0.00 47 1011.7
20260831203108 29 23 0.0 3.2 0.00 0.00 0.00 50 1011.7
20260831201602 30 353 0.0 4.8 0.00 0.00 0.00 49 1011.9
20260831200110 29 293 0.0 4.8 0.00 0.00 0.00 51 1011.9
20260831194616 28 267 3.2 4.8 0.00 0.00 0.00 53 1011.8
20260831193059 28 270 0.0 4.8 0.00 0.00 0.00 53 1011.7
20260831191607 27 298 1.6 4.8 0.00 0.00 0.00 55 1011.5
20260831190115 28 271 0.0 3.2 0.00 0.00 0.00 55 1011.5
20260831184605 27 82 1.6 4.8 0.00 0.00 0.00 55 1011.6
20260831183115 26 98 1.6 6.4 0.00 0.00 0.00 56 1011.7
20260831181606 27 282 1.6 4.8 0.00 0.00 0.00 56 1011.9
20260831180119 26 302 3.2 4.8 0.00 0.00 0.00 59 1011.7
20260831174558 26 311 1.6 4.8 0.00 0.00 0.00 57 1011.9
20260831173101 26 264 1.6 4.8 0.00 0.00 0.00 59 1011.8
20260831171604 26 269 1.6 4.8 0.00 0.00 0.00 64 1011.8
20260831164601 24 269 3.2 6.4 0.00 0.00 0.00 72 1011.7
20260831163101 24 302 3.2 6.4 0.00 0.00 0.00 71 1011.7
20260831161604 23 289 1.6 4.8 0.00 0.00 0.00 73 1011.6
20260831160108 23 301 1.6 4.8 0.00 0.00 0.00 76 1011.6
20260831154633 23 283 4.8 6.4 0.00 0.00 0.00 79 1011.5
20260831153106 23 295 3.2 6.4 0.00 0.00 0.00 80 1011.4
20260831151605 22 278 1.6 4.8 0.00 0.00 0.00 82 1011.3
20260831150112 22 274 1.6 4.8 0.00 0.00 0.00 85 1011.1
20260831144608 22 305 3.2 6.4 0.00 0.00 0.00 84 1010.7
20260831143112 22 316 1.6 6.4 0.00 0.00 0.00 86 1010.6
20260831141602 21 297 1.6 6.4 0.00 0.00 0.00 90 1010.3
20260831140057 21 45 0.0 3.2 0.00 0.00 0.00 95 1010.2
20260831134606 21 0 0.0 0.0 0.00 0.00 0.00 97 1010.0
20260831133108 21 0 0.0 0.0 0.00 0.00 0.00 97 1010.1
20260831131606 20 0 0.0 0.0 0.00 0.00 0.00 96 1009.9
20260831130109 20 0 0.0 0.0 0.00 0.00 0.00 96 1009.6
20260831124601 20 0 0.0 3.2 0.00 0.00 0.00 97 1009.2
20260831123104 20 0 0.0 0.0 0.00 0.00 0.00 97 1008.9
20260831121605 20 0 0.0 0.0 0.00 0.00 0.00 96 1008.7
20260831120129 20 0 0.0 0.0 0.00 0.00 0.00 96 1008.2
20260831114609 20 0 0.0 0.0 0.00 0.00 0.00 96 1008.0
20260831113108 20 0 0.0 0.0 0.00 0.00 0.00 96 1008.0
20260831111615 20 0 0.0 0.0 0.00 0.00 0.00 96 1007.8
20260831110105 20 0 0.0 0.0 0.00 0.00 0.00 96 1007.6
20260831104605 20 0 0.0 0.0 0.00 0.00 0.00 96 1007.4
20260831103107 20 0 0.0 0.0 0.00 0.00 0.00 96 1007.2
20260831101600 20 0 0.0 0.0 0.00 0.00 0.00 96 1007.2
20260831100112 20 0 0.0 0.0 0.00 0.00 0.00 96 1007.1